Weather History for EGUB - March, 2013

Change the Weather History Date:

Sunday, March 3, 2013

  Actual Average Record
Temperature  
Mean Temperature 34 °F -  
Max Temperature 45 °F 50 °F 57 °F (1998)
Min Temperature 24 °F 35 °F 19 °F (2006)
Degree Days  
Heating Degree Days 30    
Moisture  
Dew Point 30 °F    
Average Humidity 82    
Maximum Humidity 100    
Minimum Humidity 55    
Precipitation  
Precipitation 0.00 in - - ()
Sea Level Pressure  
Sea Level Pressure 30.20 in    
Wind  
Wind Speed 3 mph ()    
Max Wind Speed 10 mph    
Max Gust Speed -    
Visibility 5.8 miles    
Events      
Averages and records for this station are not official NWS values.
T = Trace of Precipitation, MM = Missing Value Source: Averaged Metar Reports

Daily Weather History Graph

Daily Weather History Graph

Search for Another Location

Airport or City:

Trip Planner

Search our weather history database for the weather conditions in past years. The results will help you decide how hot, cold, wet, or windy it might be!

Date:

Astronomy

Mar. 03, 2013 Rise Set
Actual Time 6:45 AM GMT 5:48 PM GMT
Civil Twilight 6:11 AM GMT 6:21 PM GMT
Nautical Twilight 5:33 AM GMT 7:00 PM GMT
Astronomical Twilight 4:54 AM GMT 7:39 PM GMT
Moon No Moon Rise 9:02 AM GMT (3/3)
Length of Visible Light 12h 10m
Length of Day
11h 03m
Waning Gibbous, 66% of the Moon is Illuminated
Mar 3
Waning Gibbous
Mar 4
Last Quarter
Mar 11
New
Mar 19
First Quarter
Mar 27
Full

Hourly Weather History & Observations

Time (GMT) Temp. Windchill Dew Point Humidity Pressure Visibility Wind Dir Wind Speed Gust Speed Precip Events Conditions
12:50 AM 24.8 °F - 24.8 °F 100% 30.27 in 3.1 mi ENE 2.3 mph - N/A   Partly Cloudy
1:50 AM 24.8 °F - 23.0 °F 93% 30.27 in 3.7 mi WNW 1.2 mph - N/A   Mostly Cloudy
2:50 AM 27 °F - 26 °F 93% 30.29 in 3 mi WNW 1.2 mph - -   Overcast
2:50 AM 26.6 °F - 26.6 °F 100% 30.27 in 3.1 mi WNW 1.2 mph - N/A   Overcast
3:50 AM 26.6 °F - 26.6 °F 100% 30.24 in - SSW 1.2 mph - N/A   Mostly Cloudy
4:50 AM 24.8 °F - 23.0 °F 93% 30.24 in 1.6 mi Calm Calm - N/A   Mostly Cloudy
5:50 AM 28 °F - 27 °F 94% 30.27 in 3 mi SSW 1.2 mph - -   Overcast
5:50 AM 28.4 °F - 26.6 °F 93% 30.24 in - SSW 1.2 mph - N/A   Overcast
6:50 AM 28.4 °F - 28.4 °F 100% 30.24 in - NE 2.3 mph - N/A   Overcast
7:50 AM 30.2 °F - 30.2 °F 100% 30.24 in - Calm Calm - N/A   Overcast
8:50 AM 33 °F - 32 °F 92% 30.27 in 3 mi NNW 3.5 mph - -   Overcast
8:50 AM 33.8 °F 30.8 °F 32.0 °F 93% 30.24 in 3.1 mi NNW 3.5 mph - N/A   Overcast
9:50 AM 35.6 °F 32.8 °F 32.0 °F 87% 30.24 in 5.0 mi North 3.5 mph - N/A   Overcast
10:50 AM 39.2 °F - 33.8 °F 81% 30.24 in 6.2 mi North 2.3 mph - N/A   Overcast
11:50 AM 42 °F - 32 °F 59% 30.25 in 14 mi SE 10.4 mph - -   Overcast
11:50 AM 42.8 °F 37.0 °F 32.0 °F 66% 30.24 in 6.2 mi SE 10.4 mph - N/A   Overcast
12:50 PM 42.8 °F 37.5 °F 33.8 °F 70% 30.21 in 6.2 mi ESE 9.2 mph - N/A   Overcast
1:50 PM 42.8 °F 37.5 °F 33.8 °F 70% 30.18 in 6.2 mi ESE 9.2 mph - N/A   Overcast
2:50 PM 44 °F - 33 °F 55% 30.20 in 16 mi ESE 5.8 mph - -   Overcast
2:50 PM 44.6 °F 41.4 °F 33.8 °F 66% 30.18 in 6.2 mi ESE 5.8 mph - N/A   Overcast
3:50 PM 46.4 °F 41.9 °F 33.8 °F 62% 30.15 in 6.2 mi ESE 9.2 mph - N/A   Mostly Cloudy
4:50 PM 44.6 °F 39.2 °F 32.0 °F 61% 30.12 in 6.2 mi East 10.4 mph - N/A   Mostly Cloudy
5:50 PM 39 °F - 30 °F 59% 30.15 in 22 mi East 6.9 mph - -   Scattered Clouds
5:50 PM 39.2 °F 34.2 °F 30.2 °F 70% 30.12 in 6.2 mi East 6.9 mph - N/A   Partly Cloudy
6:50 PM 39.2 °F 34.2 °F 30.2 °F 70% 30.12 in 6.2 mi East 6.9 mph - N/A   Mostly Cloudy
7:50 PM 37.4 °F 33.8 °F 30.2 °F 75% 30.12 in 6.2 mi ENE 4.6 mph - N/A   Partly Cloudy
8:50 PM 35 °F - 32 °F 83% 30.16 in 9 mi East 5.8 mph - -   Scattered Clouds
8:50 PM 33.8 °F 28.6 °F 32.0 °F 93% 30.12 in 6.2 mi East 5.8 mph - N/A   Partly Cloudy
9:50 PM 35.6 °F 31.7 °F 33.8 °F 93% 30.12 in 5.6 mi East 4.6 mph - N/A   Mostly Cloudy
10:50 PM 37.4 °F 31.4 °F 33.8 °F 87% 30.09 in 5.6 mi East 8.1 mph - N/A   Mostly Cloudy
11:50 PM 35 °F - 33 °F 87% 30.12 in 5 mi East 6.9 mph - -   Scattered Clouds
11:50 PM 33.8 °F 27.7 °F 32.0 °F 93% 30.09 in 5.0 mi East 6.9 mph - N/A   Partly Cloudy